Weather in Monastyrishche

Russia / Primorsky Krai     44°11′40″N   132°29′34″E
temp.,
°C
wind,
m/s
gust,
m/s
humid.,
%
clouds,
%
prec.,
mm/h
press.,
hPa
HPBL,
m
2 december, thu
thu201:00−14wnw512763 0.0 1010327
04:00−15w38864 0.0 1010138
07:00−17ssw33925 0.0 101130
10:00−12sse3785100 0.0 1010145
13:00−5ssw61274100 0.0 1006802
16:00−2ssw71472100 0.0 1003609
19:00−1ssw81770100 0.0 1002685
22:00−1sw7147499 0.0 1003445
3 december, fri
fri301:00−4sw5138298 0.0 1004312
04:00−11ssw34925 0.0 100660
07:00−12w389154 0.0 1008141
10:00−11wnw2790100 0.0 1013225
13:00−9nnw3584100 0.1 1014753
16:00−8wnw2488100 0.4 1014558
19:00−15sw119576 0.2 101810
22:00−18sse229570 0.2 101810
4 december, sat
sat401:00−14sse2289100 0.0 101743
04:00−13ssw1294100 0.1 101739
07:00−14nw2697100 0.2 1019209
10:00−14n499291 0.6 1024722
13:00−14nnw477748 0.0 1025751
16:00−13nne127973 0.0 1026290
19:00−20sse22905 0.0 102810
22:00−22se22935 0.0 103011
5 december, sun
sun501:00−21sse22955 0.0 103115
04:00−20se32925 0.0 103123
07:00−18se33864 0.0 103138
10:00−13sse34775 0.0 103089
13:00−6s47690 0.0 1027335
16:00−3ssw511710 0.0 1025433
19:00−7sse47865 0.0 102596
22:00−7sse46915 0.0 102487
6 december, mon
mon601:00−6sse369116 0.0 1023102
04:00−5s369652 0.0 1022113
07:00−4s369416 0.0 102289
10:00−1ssw389175 0.0 1023167
13:00+1sw4129799 0.0 1023384
16:00+1sw31091100 0.0 1023277
19:00−4wsw229397 0.0 102523
22:00−9w119061 0.0 102810